NKS004 KDTW-KLAS

Flight info

Callsign NKS004
Flight time 3h 57m
Altitude 34000
Route KAYLN3 SMUUV OBK IOW J60 DVV/N0445F360 J60 HVE GGAPP CHOWW4
Aircraft A21N/M-SDE2E3FGHIRWXY/LB1

Departure

Time 2026-05-07 09:24
Airport Detroit Metropolitan Wayne County Airport (KDTW)

Arrival

Time 2026-05-07 13:22
Airport Harry Reid International Airport (KLAS)
Time Latitude Longitude Altitude Speed Heading
2026-05-07 09:05 42.20500 -83.35983 642 ft 0 kts 300°
2026-05-07 09:13 42.20495 -83.35971 642 ft 2 kts 299°
2026-05-07 09:14 42.20491 -83.35960 641 ft 2 kts 300°
2026-05-07 09:14 42.20486 -83.35941 641 ft 2 kts 267°
2026-05-07 09:14 42.20490 -83.35921 641 ft 2 kts 242°
2026-05-07 09:14 42.20499 -83.35905 642 ft 1 kts 215°
2026-05-07 09:15 42.20505 -83.35901 642 ft 1 kts 204°
2026-05-07 09:15 42.20508 -83.35899 642 ft 0 kts 208°
2026-05-07 09:17 42.20506 -83.35900 642 ft 1 kts 208°
2026-05-07 09:18 42.20490 -83.35912 641 ft 4 kts 208°
2026-05-07 09:18 42.20451 -83.35941 641 ft 8 kts 209°
2026-05-07 09:18 42.20381 -83.35994 639 ft 13 kts 210°
2026-05-07 09:18 42.20291 -83.36060 639 ft 14 kts 209°
2026-05-07 09:19 42.20199 -83.36126 639 ft 15 kts 208°
2026-05-07 09:19 42.20090 -83.36152 638 ft 16 kts 155°
2026-05-07 09:19 42.20069 -83.36010 638 ft 16 kts 89°
2026-05-07 09:19 42.20072 -83.35854 638 ft 17 kts 89°
2026-05-07 09:20 42.20074 -83.35690 638 ft 17 kts 89°
2026-05-07 09:20 42.20078 -83.35522 638 ft 18 kts 88°
2026-05-07 09:20 42.20080 -83.35352 638 ft 18 kts 93°
2026-05-07 09:20 42.20014 -83.35198 636 ft 20 kts 133°
2026-05-07 09:21 42.19945 -83.35153 635 ft 9 kts 229°
2026-05-07 09:21 42.19892 -83.35191 635 ft 9 kts 208°
2026-05-07 09:21 42.19830 -83.35236 635 ft 11 kts 209°
2026-05-07 09:21 42.19755 -83.35292 635 ft 13 kts 209°
2026-05-07 09:22 42.19667 -83.35338 635 ft 13 kts 172°
2026-05-07 09:22 42.19621 -83.35281 635 ft 1 kts 117°
2026-05-07 09:22 42.19613 -83.35261 635 ft 3 kts 117°
2026-05-07 09:22 42.19600 -83.35226 635 ft 5 kts 117°
2026-05-07 09:23 42.19588 -83.35175 635 ft 6 kts 74°
2026-05-07 09:23 42.19620 -83.35138 635 ft 0 kts 29°
2026-05-07 09:23 42.19689 -83.35086 635 ft 39 kts 28°
2026-05-07 09:24 42.20141 -83.34753 635 ft 107 kts 29°
2026-05-07 09:24 42.20973 -83.34140 636 ft 162 kts 29°
2026-05-07 09:24 42.22045 -83.33333 989 ft 179 kts 27°
2026-05-07 09:24 42.23114 -83.32507 1650 ft 179 kts 25°
2026-05-07 09:25 42.24267 -83.32134 2285 ft 172 kts 350°
2026-05-07 09:25 42.25429 -83.32556 2641 ft 178 kts 337°
2026-05-07 09:25 42.26607 -83.33188 2917 ft 190 kts 336°
2026-05-07 09:25 42.27890 -83.33852 3194 ft 204 kts 337°
2026-05-07 09:26 42.29265 -83.34525 3427 ft 221 kts 338°
2026-05-07 09:26 42.30786 -83.35235 3760 ft 235 kts 339°
2026-05-07 09:26 42.32373 -83.35957 4085 ft 250 kts 339°
2026-05-07 09:26 42.34051 -83.36710 4630 ft 256 kts 339°
2026-05-07 09:27 42.35738 -83.37463 5287 ft 258 kts 339°
2026-05-07 09:27 42.37455 -83.38231 5922 ft 261 kts 338°
2026-05-07 09:27 42.40349 -83.41007 7228 ft 257 kts 307°
2026-05-07 09:28 42.41446 -83.42895 7941 ft 258 kts 306°
2026-05-07 09:28 42.42533 -83.44818 8591 ft 259 kts 305°
2026-05-07 09:28 42.43623 -83.46735 9206 ft 261 kts 306°
2026-05-07 09:28 42.44737 -83.48681 9828 ft 262 kts 306°
2026-05-07 09:29 42.45834 -83.50644 10376 ft 265 kts 300°
2026-05-07 09:29 42.46546 -83.52984 10629 ft 276 kts 281°
2026-05-07 09:29 42.46639 -83.55625 10898 ft 288 kts 268°
2026-05-07 09:29 42.46518 -83.58384 11257 ft 297 kts 268°
2026-05-07 09:30 42.46386 -83.61162 11808 ft 299 kts 268°
2026-05-07 09:30 42.46255 -83.63972 12411 ft 299 kts 268°
2026-05-07 09:30 42.46131 -83.66771 12983 ft 299 kts 268°
2026-05-07 09:30 42.46008 -83.69574 13547 ft 300 kts 268°
2026-05-07 09:31 42.45884 -83.72406 14090 ft 302 kts 268°
2026-05-07 09:31 42.45762 -83.75204 14601 ft 303 kts 268°
2026-05-07 09:31 42.45639 -83.78043 15141 ft 303 kts 268°
2026-05-07 09:31 42.45517 -83.80883 15640 ft 304 kts 268°
2026-05-07 09:32 42.45392 -83.83773 16122 ft 306 kts 268°
2026-05-07 09:32 42.45266 -83.86626 16606 ft 307 kts 268°
2026-05-07 09:32 42.45139 -83.89517 17057 ft 309 kts 268°
2026-05-07 09:32 42.45011 -83.92403 17506 ft 310 kts 267°
2026-05-07 09:33 42.44879 -83.95337 17848 ft 314 kts 267°
2026-05-07 09:33 42.44748 -83.98274 18215 ft 317 kts 268°
2026-05-07 09:33 42.44613 -84.01247 18647 ft 318 kts 267°
2026-05-07 09:33 42.44475 -84.04263 19086 ft 319 kts 267°
2026-05-07 09:34 42.44340 -84.07231 19493 ft 320 kts 267°
2026-05-07 09:34 42.44200 -84.10249 19880 ft 321 kts 267°
2026-05-07 09:34 42.44062 -84.13258 20303 ft 321 kts 267°
2026-05-07 09:34 42.43921 -84.16272 20688 ft 322 kts 266°
2026-05-07 09:35 42.43780 -84.19292 20925 ft 327 kts 266°
2026-05-07 09:35 42.43632 -84.22362 21224 ft 330 kts 266°
2026-05-07 09:35 42.43484 -84.25490 21592 ft 331 kts 266°
2026-05-07 09:35 42.43336 -84.28576 21959 ft 331 kts 266°
2026-05-07 09:36 42.43212 -84.31674 22272 ft 332 kts 268°
2026-05-07 09:36 42.43200 -84.34808 22601 ft 333 kts 270°
2026-05-07 09:36 42.43276 -84.37917 22928 ft 334 kts 271°
2026-05-07 09:36 42.43355 -84.41065 23236 ft 335 kts 271°
2026-05-07 09:37 42.43436 -84.44218 23547 ft 336 kts 271°
2026-05-07 09:37 42.43517 -84.47367 23868 ft 336 kts 271°
2026-05-07 09:37 42.43600 -84.50525 24152 ft 338 kts 271°
2026-05-07 09:37 42.43679 -84.53711 24394 ft 339 kts 271°
2026-05-07 09:38 42.43761 -84.56892 24661 ft 341 kts 270°
2026-05-07 09:38 42.43841 -84.60090 24921 ft 342 kts 271°
2026-05-07 09:38 42.43923 -84.63319 25185 ft 342 kts 270°
2026-05-07 09:38 42.44002 -84.66509 25459 ft 343 kts 270°
2026-05-07 09:39 42.44078 -84.69712 25701 ft 343 kts 270°
2026-05-07 09:39 42.44138 -84.72188 25800 ft 345 kts 270°
2026-05-07 09:39 42.44199 -84.74773 25992 ft 346 kts 270°
2026-05-07 09:39 42.44276 -84.78011 26274 ft 347 kts 270°
2026-05-07 09:40 42.44353 -84.81301 26516 ft 348 kts 269°
2026-05-07 09:40 42.44429 -84.84566 26761 ft 348 kts 269°
2026-05-07 09:40 42.44501 -84.87819 26950 ft 351 kts 269°
2026-05-07 09:40 42.44574 -84.91151 27033 ft 355 kts 270°
2026-05-07 09:41 42.44648 -84.94496 27205 ft 357 kts 269°
2026-05-07 09:41 42.44724 -84.97826 27390 ft 359 kts 269°
2026-05-07 09:41 42.44796 -85.01203 27588 ft 360 kts 270°
2026-05-07 09:41 42.44868 -85.04553 27795 ft 360 kts 270°
2026-05-07 09:42 42.44941 -85.07938 28004 ft 361 kts 269°
2026-05-07 09:42 42.45013 -85.11334 28174 ft 362 kts 269°
2026-05-07 09:42 42.45082 -85.14767 28367 ft 363 kts 269°
2026-05-07 09:42 42.45152 -85.18165 28577 ft 363 kts 269°
2026-05-07 09:43 42.45219 -85.21591 28746 ft 365 kts 269°
2026-05-07 09:43 42.45285 -85.24985 28926 ft 365 kts 269°
2026-05-07 09:43 42.45351 -85.28411 29108 ft 366 kts 269°
2026-05-07 09:43 42.45416 -85.31844 29311 ft 365 kts 269°
2026-05-07 09:44 42.45480 -85.35283 29543 ft 364 kts 269°
2026-05-07 09:44 42.45542 -85.38654 29747 ft 363 kts 269°
2026-05-07 09:44 42.45604 -85.42051 29960 ft 362 kts 269°
2026-05-07 09:44 42.45665 -85.45474 30133 ft 362 kts 269°
2026-05-07 09:45 42.45722 -85.48864 30341 ft 361 kts 269°
2026-05-07 09:45 42.45780 -85.52216 30547 ft 360 kts 269°
2026-05-07 09:45 42.45836 -85.55577 30693 ft 359 kts 269°
2026-05-07 09:45 42.45892 -85.58982 30838 ft 359 kts 269°
2026-05-07 09:46 42.45947 -85.62349 30979 ft 358 kts 269°
2026-05-07 09:46 42.46001 -85.65698 31102 ft 359 kts 268°
2026-05-07 09:46 42.46052 -85.69048 31245 ft 359 kts 268°
2026-05-07 09:46 42.46104 -85.72429 31388 ft 359 kts 268°
2026-05-07 09:47 42.46154 -85.75794 31527 ft 359 kts 268°
2026-05-07 09:47 42.46204 -85.79165 31655 ft 359 kts 268°
2026-05-07 09:47 42.46254 -85.82544 31785 ft 359 kts 268°
2026-05-07 09:47 42.46303 -85.85917 31940 ft 359 kts 268°
2026-05-07 09:48 42.46348 -85.89275 32099 ft 359 kts 268°
2026-05-07 09:48 42.46394 -85.92663 32220 ft 360 kts 268°
2026-05-07 09:48 42.46439 -85.96040 32327 ft 361 kts 269°
2026-05-07 09:48 42.46482 -85.99411 32437 ft 362 kts 268°
2026-05-07 09:49 42.46526 -86.02818 32545 ft 362 kts 269°
2026-05-07 09:49 42.46567 -86.06198 32679 ft 362 kts 268°
2026-05-07 09:49 42.46531 -86.09577 32801 ft 362 kts 266°
2026-05-07 09:50 42.46099 -86.16382 32960 ft 364 kts 262°
2026-05-07 09:50 42.45716 -86.19727 33098 ft 363 kts 260°
2026-05-07 09:50 42.45295 -86.23109 33185 ft 364 kts 260°
2026-05-07 09:51 42.44449 -86.29886 33351 ft 366 kts 260°
2026-05-07 09:51 42.44022 -86.33272 33454 ft 367 kts 260°
2026-05-07 09:51 42.43592 -86.36671 33572 ft 367 kts 260°
2026-05-07 09:51 42.43159 -86.40043 33690 ft 368 kts 260°
2026-05-07 09:52 42.42722 -86.43456 33777 ft 369 kts 261°
2026-05-07 09:52 42.41840 -86.50305 33969 ft 370 kts 261°
2026-05-07 09:53 42.40955 -86.57157 33995 ft 371 kts 260°
2026-05-07 09:53 42.40063 -86.64013 34003 ft 372 kts 260°
2026-05-07 09:54 42.39169 -86.70854 34005 ft 373 kts 260°
2026-05-07 09:54 42.38267 -86.77734 34006 ft 373 kts 260°
2026-05-07 09:55 42.37367 -86.84569 34011 ft 371 kts 260°
2026-05-07 09:55 42.36453 -86.91451 34007 ft 372 kts 259°
2026-05-07 09:56 42.35539 -86.98309 34009 ft 371 kts 259°
2026-05-07 09:56 42.34622 -87.05148 34008 ft 372 kts 260°
2026-05-07 09:57 42.33698 -87.11993 34010 ft 372 kts 260°
2026-05-07 09:57 42.32769 -87.18870 34010 ft 372 kts 260°
2026-05-07 09:58 42.31837 -87.25743 34011 ft 372 kts 260°
2026-05-07 09:58 42.30898 -87.32597 34013 ft 373 kts 260°
2026-05-07 09:59 42.29954 -87.39484 34016 ft 373 kts 260°
2026-05-07 09:59 42.29010 -87.46339 34016 ft 373 kts 260°
2026-05-07 10:00 42.28059 -87.53212 34018 ft 373 kts 260°
2026-05-07 10:00 42.27104 -87.60065 34018 ft 373 kts 260°
2026-05-07 10:01 42.26146 -87.66933 34023 ft 373 kts 259°
2026-05-07 10:01 42.25191 -87.73753 34026 ft 373 kts 259°
2026-05-07 10:02 42.24223 -87.80640 34030 ft 373 kts 259°
2026-05-07 10:02 42.23253 -87.87464 34032 ft 373 kts 259°
2026-05-07 10:03 42.22272 -87.94324 34035 ft 374 kts 259°
2026-05-07 10:03 42.21112 -88.01125 34034 ft 373 kts 258°
2026-05-07 10:04 42.19928 -88.07946 34034 ft 374 kts 258°
2026-05-07 10:04 42.18740 -88.14730 34032 ft 375 kts 258°
2026-05-07 10:05 42.17544 -88.21531 34027 ft 374 kts 258°
2026-05-07 10:05 42.16339 -88.28347 34028 ft 374 kts 258°
2026-05-07 10:06 42.15131 -88.35159 34024 ft 375 kts 258°
2026-05-07 10:06 42.13921 -88.41952 34026 ft 375 kts 258°
2026-05-07 10:07 42.12706 -88.48747 34025 ft 375 kts 258°
2026-05-07 10:07 42.11491 -88.55522 34026 ft 375 kts 258°
2026-05-07 10:08 42.10262 -88.62341 34029 ft 375 kts 258°
2026-05-07 10:08 42.09031 -88.69152 34032 ft 375 kts 258°
2026-05-07 10:09 42.07809 -88.75930 34038 ft 375 kts 258°
2026-05-07 10:09 42.06574 -88.82713 34034 ft 375 kts 258°
2026-05-07 10:10 42.05333 -88.89515 34034 ft 375 kts 257°
2026-05-07 10:10 42.04091 -88.96300 34034 ft 375 kts 257°
2026-05-07 10:11 42.02839 -89.03088 34031 ft 374 kts 258°
2026-05-07 10:11 42.01588 -89.09860 34031 ft 375 kts 257°
2026-05-07 10:12 42.00326 -89.16663 34031 ft 375 kts 258°
2026-05-07 10:12 41.99070 -89.23425 34035 ft 375 kts 258°
2026-05-07 10:13 41.97803 -89.30209 34035 ft 375 kts 258°
2026-05-07 10:13 41.96535 -89.36977 34036 ft 375 kts 258°
2026-05-07 10:14 41.95262 -89.43751 34029 ft 375 kts 257°
2026-05-07 10:14 41.93977 -89.50545 34025 ft 376 kts 258°
2026-05-07 10:15 41.92700 -89.57300 34031 ft 375 kts 258°
2026-05-07 10:15 41.91413 -89.64072 34028 ft 376 kts 258°
2026-05-07 10:16 41.90120 -89.70864 34034 ft 376 kts 257°
2026-05-07 10:16 41.88807 -89.77638 34032 ft 376 kts 257°
2026-05-07 10:17 41.87494 -89.84380 34031 ft 375 kts 257°
2026-05-07 10:17 41.86189 -89.91119 34032 ft 375 kts 257°
2026-05-07 10:18 41.84875 -89.97877 34036 ft 374 kts 257°
2026-05-07 10:18 41.83568 -90.04607 34035 ft 374 kts 257°
2026-05-07 10:19 41.82259 -90.11323 34036 ft 375 kts 258°
2026-05-07 10:19 41.80946 -90.18057 34043 ft 374 kts 257°
2026-05-07 10:20 41.79621 -90.24811 34047 ft 375 kts 257°
2026-05-07 10:20 41.78307 -90.31499 34045 ft 375 kts 257°
2026-05-07 10:21 41.76971 -90.38238 34030 ft 375 kts 257°
2026-05-07 10:21 41.75638 -90.44958 34042 ft 375 kts 257°
2026-05-07 10:22 41.74301 -90.51689 34043 ft 374 kts 257°
2026-05-07 10:22 41.72964 -90.58385 34038 ft 372 kts 257°
2026-05-07 10:23 41.71634 -90.65038 34028 ft 372 kts 257°
2026-05-07 10:23 41.70293 -90.71743 34040 ft 373 kts 257°
2026-05-07 10:24 41.68957 -90.78397 34023 ft 372 kts 257°
2026-05-07 10:24 41.67617 -90.85055 34027 ft 372 kts 257°
2026-05-07 10:25 41.66270 -90.91719 34030 ft 371 kts 257°
2026-05-07 10:25 41.64926 -90.98332 34023 ft 370 kts 257°
2026-05-07 10:26 41.63573 -91.04966 34018 ft 371 kts 257°
2026-05-07 10:26 41.62219 -91.11590 34040 ft 371 kts 257°
2026-05-07 10:27 41.60851 -91.18240 34031 ft 372 kts 257°
2026-05-07 10:27 41.59488 -91.24873 34023 ft 371 kts 257°
2026-05-07 10:28 41.58122 -91.31488 34035 ft 372 kts 257°
2026-05-07 10:28 41.56749 -91.38119 34022 ft 373 kts 257°
2026-05-07 10:29 41.55373 -91.44748 34025 ft 372 kts 257°
2026-05-07 10:29 41.53986 -91.51392 34035 ft 372 kts 257°
2026-05-07 10:30 41.52075 -91.61369 34030 ft 372 kts 261°
2026-05-07 10:30 41.51295 -91.68161 34031 ft 371 kts 263°
2026-05-07 10:31 41.50642 -91.75008 34024 ft 371 kts 264°
2026-05-07 10:31 41.49994 -91.81805 34022 ft 372 kts 263°
2026-05-07 10:32 41.49345 -91.88614 34031 ft 372 kts 263°
2026-05-07 10:32 41.48691 -91.95467 34013 ft 372 kts 263°
2026-05-07 10:33 41.48036 -92.02273 34028 ft 372 kts 263°
2026-05-07 10:33 41.47376 -92.09078 34004 ft 372 kts 263°
2026-05-07 10:34 41.46709 -92.15907 34014 ft 373 kts 264°
2026-05-07 10:34 41.46042 -92.22735 34005 ft 372 kts 264°
2026-05-07 10:35 41.45370 -92.29570 34013 ft 372 kts 264°
2026-05-07 10:35 41.44696 -92.36364 34012 ft 373 kts 264°
2026-05-07 10:36 41.44013 -92.43199 34010 ft 373 kts 264°
2026-05-07 10:36 41.43323 -92.50057 34013 ft 373 kts 264°
2026-05-07 10:37 41.42636 -92.56853 34019 ft 374 kts 264°
2026-05-07 10:37 41.41940 -92.63702 34010 ft 374 kts 264°
2026-05-07 10:38 41.41237 -92.70558 34017 ft 375 kts 264°
2026-05-07 10:38 41.40532 -92.77427 34013 ft 375 kts 264°
2026-05-07 10:39 41.39820 -92.84325 34012 ft 377 kts 264°
2026-05-07 10:39 41.39103 -92.91193 34020 ft 377 kts 263°
2026-05-07 10:40 41.38381 -92.98087 34015 ft 378 kts 264°
2026-05-07 10:40 41.37651 -93.05009 34013 ft 377 kts 264°
2026-05-07 10:41 41.36917 -93.11913 34035 ft 379 kts 264°
2026-05-07 10:41 41.36182 -93.18799 34019 ft 379 kts 264°
2026-05-07 10:42 41.35437 -93.25736 34026 ft 379 kts 264°
2026-05-07 10:42 41.34686 -93.32679 34027 ft 380 kts 264°
2026-05-07 10:43 41.33938 -93.39576 34016 ft 380 kts 264°
2026-05-07 10:43 41.33178 -93.46542 34021 ft 380 kts 264°
2026-05-07 10:44 41.32422 -93.53428 34007 ft 380 kts 264°
2026-05-07 10:44 41.31650 -93.60422 34011 ft 381 kts 265°
2026-05-07 10:45 41.30879 -93.67360 34021 ft 381 kts 264°
2026-05-07 10:45 41.30106 -93.74290 34010 ft 382 kts 264°
2026-05-07 10:46 41.29324 -93.81252 34024 ft 382 kts 265°
2026-05-07 10:46 41.28534 -93.88254 34024 ft 383 kts 264°
2026-05-07 10:47 41.27742 -93.95230 34015 ft 383 kts 265°
2026-05-07 10:47 41.26950 -94.02183 34007 ft 384 kts 265°
2026-05-07 10:48 41.26141 -94.09223 33995 ft 385 kts 265°
2026-05-07 10:48 41.25333 -94.16221 33995 ft 387 kts 265°
2026-05-07 10:49 41.24515 -94.23251 33996 ft 387 kts 265°
2026-05-07 10:49 41.23693 -94.30303 33995 ft 387 kts 265°
2026-05-07 10:50 41.22863 -94.37344 33990 ft 388 kts 265°
2026-05-07 10:50 41.22028 -94.44448 33984 ft 387 kts 265°
2026-05-07 10:51 41.21190 -94.51502 33989 ft 387 kts 265°
2026-05-07 10:51 41.20350 -94.58532 33986 ft 388 kts 265°
2026-05-07 10:52 41.19506 -94.65571 33992 ft 389 kts 265°
2026-05-07 10:52 41.18655 -94.72631 33993 ft 389 kts 265°
2026-05-07 10:53 41.17797 -94.79724 33989 ft 389 kts 265°
2026-05-07 10:53 41.16938 -94.86774 33988 ft 390 kts 265°
2026-05-07 10:54 41.16066 -94.93887 33992 ft 390 kts 265°
2026-05-07 10:54 41.15192 -95.00977 33995 ft 392 kts 265°
2026-05-07 10:55 41.14314 -95.08089 33986 ft 393 kts 265°
2026-05-07 10:55 41.13427 -95.15213 33996 ft 393 kts 265°
2026-05-07 10:56 41.12532 -95.22347 33993 ft 393 kts 266°
2026-05-07 10:56 41.11633 -95.29489 33994 ft 394 kts 266°
2026-05-07 10:57 41.10731 -95.36626 33991 ft 393 kts 266°
2026-05-07 10:57 41.09831 -95.43713 33991 ft 393 kts 266°
2026-05-07 10:58 41.08919 -95.50864 33997 ft 394 kts 266°
2026-05-07 10:58 41.07999 -95.58011 33999 ft 393 kts 266°
2026-05-07 10:59 41.07083 -95.65115 33993 ft 393 kts 266°
2026-05-07 10:59 41.06165 -95.72201 33994 ft 393 kts 266°
2026-05-07 11:00 41.05239 -95.79308 33992 ft 392 kts 266°
2026-05-07 11:00 41.04306 -95.86430 33988 ft 392 kts 266°
2026-05-07 11:01 41.03378 -95.93489 33988 ft 391 kts 266°
2026-05-07 11:01 41.02443 -96.00542 33986 ft 391 kts 266°
2026-05-07 11:02 41.01502 -96.07634 33986 ft 392 kts 266°
2026-05-07 11:02 41.00553 -96.14735 33986 ft 393 kts 266°
2026-05-07 11:03 40.99597 -96.21861 33978 ft 393 kts 266°
2026-05-07 11:03 40.98636 -96.28969 33976 ft 394 kts 266°
2026-05-07 11:04 40.97675 -96.36070 33977 ft 395 kts 266°
2026-05-07 11:04 40.96698 -96.43220 33975 ft 396 kts 266°
2026-05-07 11:05 40.95722 -96.50346 33980 ft 397 kts 266°
2026-05-07 11:05 40.94731 -96.57539 33975 ft 398 kts 266°
2026-05-07 11:06 40.93736 -96.64706 33977 ft 398 kts 266°
2026-05-07 11:06 40.92737 -96.71905 33988 ft 400 kts 265°
2026-05-07 11:07 40.91967 -96.79125 33987 ft 397 kts 268°
2026-05-07 11:07 40.91283 -96.86403 33991 ft 398 kts 268°
2026-05-07 11:08 40.90597 -96.93647 33986 ft 399 kts 268°
2026-05-07 11:08 40.89907 -97.00870 33979 ft 400 kts 268°
2026-05-07 11:09 40.89183 -97.08109 33974 ft 398 kts 268°
2026-05-07 11:09 40.88462 -97.15372 33961 ft 400 kts 268°
2026-05-07 11:10 40.87746 -97.22646 33963 ft 400 kts 268°
2026-05-07 11:10 40.87032 -97.29891 33971 ft 400 kts 268°
2026-05-07 11:11 40.86314 -97.37149 33966 ft 401 kts 268°
2026-05-07 11:11 40.85592 -97.44422 33961 ft 401 kts 268°
2026-05-07 11:12 40.84864 -97.51691 33969 ft 401 kts 268°
2026-05-07 11:12 40.84129 -97.59006 33970 ft 401 kts 268°
2026-05-07 11:13 40.83388 -97.66289 33969 ft 402 kts 268°
2026-05-07 11:13 40.82646 -97.73576 33971 ft 402 kts 268°
2026-05-07 11:14 40.81900 -97.80855 33973 ft 402 kts 268°
2026-05-07 11:14 40.81148 -97.88131 33970 ft 402 kts 268°
2026-05-07 11:15 40.80393 -97.95409 33965 ft 402 kts 268°
2026-05-07 11:15 40.79627 -98.02713 33965 ft 402 kts 268°
2026-05-07 11:16 40.78865 -98.09969 33968 ft 401 kts 268°
2026-05-07 11:16 40.78094 -98.17255 33969 ft 402 kts 268°
2026-05-07 11:17 40.77324 -98.24503 33966 ft 403 kts 267°
2026-05-07 11:17 40.76539 -98.31816 33967 ft 403 kts 267°
2026-05-07 11:18 40.75751 -98.39106 33969 ft 403 kts 267°
2026-05-07 11:18 40.74954 -98.46423 33962 ft 403 kts 267°
2026-05-07 11:19 40.74158 -98.53693 33968 ft 403 kts 267°
2026-05-07 11:19 40.73357 -98.60979 33965 ft 403 kts 267°
2026-05-07 11:20 40.72545 -98.68319 33962 ft 404 kts 266°
2026-05-07 11:20 40.71735 -98.75616 33970 ft 403 kts 266°
2026-05-07 11:21 40.70918 -98.82906 33969 ft 404 kts 266°
2026-05-07 11:21 40.70098 -98.90197 33969 ft 404 kts 266°
2026-05-07 11:22 40.69275 -98.97470 33979 ft 404 kts 266°
2026-05-07 11:22 40.68441 -99.04797 33981 ft 404 kts 266°
2026-05-07 11:23 40.67606 -99.12082 33977 ft 404 kts 266°
2026-05-07 11:23 40.66765 -99.19390 33971 ft 405 kts 266°
2026-05-07 11:24 40.65922 -99.26659 33976 ft 404 kts 266°
2026-05-07 11:24 40.65068 -99.33998 33969 ft 405 kts 266°
2026-05-07 11:25 40.64214 -99.41281 33970 ft 405 kts 266°
2026-05-07 11:25 40.63353 -99.48589 33974 ft 405 kts 266°
2026-05-07 11:26 40.62491 -99.55859 33964 ft 405 kts 266°
2026-05-07 11:26 40.61619 -99.63176 33966 ft 406 kts 266°
2026-05-07 11:27 40.60745 -99.70480 33967 ft 405 kts 265°
2026-05-07 11:27 40.59865 -99.77792 33968 ft 405 kts 265°
2026-05-07 11:28 40.58979 -99.85112 33963 ft 406 kts 265°
2026-05-07 11:28 40.58091 -99.92415 33963 ft 406 kts 265°
2026-05-07 11:29 40.57195 -99.99725 33956 ft 407 kts 265°
2026-05-07 11:29 40.56293 -100.07048 33963 ft 407 kts 265°
2026-05-07 11:30 40.55383 -100.14392 33961 ft 407 kts 265°
2026-05-07 11:30 40.54476 -100.21681 33969 ft 408 kts 265°
2026-05-07 11:31 40.53556 -100.29029 33965 ft 407 kts 265°
2026-05-07 11:31 40.52640 -100.36314 33958 ft 407 kts 265°
2026-05-07 11:32 40.51246 -100.47323 33964 ft 407 kts 265°
2026-05-07 11:33 40.50316 -100.54621 33963 ft 407 kts 265°
2026-05-07 11:33 40.49382 -100.61901 33961 ft 408 kts 265°
2026-05-07 11:34 40.48438 -100.69239 33963 ft 408 kts 265°
2026-05-07 11:34 40.47485 -100.76611 33963 ft 409 kts 265°
2026-05-07 11:35 40.46537 -100.83902 33962 ft 409 kts 265°
2026-05-07 11:35 40.45571 -100.91276 33958 ft 410 kts 265°
2026-05-07 11:36 40.44591 -100.98642 33951 ft 410 kts 264°
2026-05-07 11:36 40.43604 -101.05956 33955 ft 410 kts 265°
2026-05-07 11:37 40.42603 -101.13322 33951 ft 410 kts 265°
2026-05-07 11:37 40.41601 -101.20669 33951 ft 410 kts 265°
2026-05-07 11:38 40.40603 -101.27967 33959 ft 410 kts 265°
2026-05-07 11:38 40.39592 -101.35310 33951 ft 410 kts 265°
2026-05-07 11:39 40.38575 -101.42654 33959 ft 410 kts 265°
2026-05-07 11:39 40.37560 -101.49957 33958 ft 409 kts 265°
2026-05-07 11:40 40.36538 -101.57291 33963 ft 409 kts 265°
2026-05-07 11:40 40.35515 -101.64580 33964 ft 410 kts 265°
2026-05-07 11:41 40.34484 -101.71893 33966 ft 410 kts 264°
2026-05-07 11:41 40.33451 -101.79205 33971 ft 410 kts 265°
2026-05-07 11:42 40.32410 -101.86518 33968 ft 409 kts 265°
2026-05-07 11:42 40.31366 -101.93828 33970 ft 410 kts 265°
2026-05-07 11:43 40.30312 -102.01168 33976 ft 410 kts 265°
2026-05-07 11:43 40.29258 -102.08471 33973 ft 410 kts 265°
2026-05-07 11:44 40.28200 -102.15757 33975 ft 410 kts 265°
2026-05-07 11:44 40.27130 -102.23105 33979 ft 411 kts 265°
2026-05-07 11:45 40.26059 -102.30428 33985 ft 411 kts 265°
2026-05-07 11:45 40.24982 -102.37750 33992 ft 411 kts 265°
2026-05-07 11:46 40.23905 -102.45049 33995 ft 411 kts 265°
2026-05-07 11:46 40.22818 -102.52368 34002 ft 412 kts 265°
2026-05-07 11:47 40.21725 -102.59694 34006 ft 412 kts 265°
2026-05-07 11:47 40.20629 -102.67013 34016 ft 413 kts 265°
2026-05-07 11:48 40.19523 -102.74382 34022 ft 414 kts 264°
2026-05-07 11:48 40.18411 -102.81754 34025 ft 414 kts 264°
2026-05-07 11:49 40.17291 -102.89125 34029 ft 415 kts 265°
2026-05-07 11:49 40.16170 -102.96481 34043 ft 414 kts 265°
2026-05-07 11:50 40.15042 -103.03846 34053 ft 415 kts 265°
2026-05-07 11:50 40.13905 -103.11241 34049 ft 415 kts 265°
2026-05-07 11:51 40.12770 -103.18594 34027 ft 414 kts 264°
2026-05-07 11:51 40.11625 -103.25974 34022 ft 417 kts 264°
2026-05-07 11:52 40.10475 -103.33335 34036 ft 416 kts 264°
2026-05-07 11:52 40.09315 -103.40738 34060 ft 415 kts 264°
2026-05-07 11:53 40.08157 -103.48098 34068 ft 415 kts 264°
2026-05-07 11:53 40.07000 -103.55434 34080 ft 416 kts 264°
2026-05-07 11:54 40.05833 -103.62790 34078 ft 416 kts 264°
2026-05-07 11:54 40.04654 -103.70189 34083 ft 417 kts 263°
2026-05-07 11:55 40.03474 -103.77572 34085 ft 417 kts 263°
2026-05-07 11:55 40.02289 -103.84943 34091 ft 416 kts 263°
2026-05-07 11:56 40.01102 -103.92313 34102 ft 417 kts 263°
2026-05-07 11:56 39.99906 -103.99683 34114 ft 416 kts 263°
2026-05-07 11:57 39.98706 -104.07037 34111 ft 416 kts 263°
2026-05-07 11:57 39.97506 -104.14362 34118 ft 416 kts 263°
2026-05-07 11:58 39.96303 -104.21691 34125 ft 416 kts 263°
2026-05-07 11:58 39.95084 -104.29079 34128 ft 416 kts 263°
2026-05-07 11:59 39.93868 -104.36423 34124 ft 416 kts 263°
2026-05-07 11:59 39.92650 -104.43737 34094 ft 416 kts 263°
2026-05-07 12:00 39.91422 -104.51069 34071 ft 415 kts 263°
2026-05-07 12:00 39.90197 -104.58363 34144 ft 416 kts 263°
2026-05-07 12:00 39.89569 -104.62061 34382 ft 415 kts 263°
2026-05-07 12:01 39.88902 -104.65704 34612 ft 414 kts 261°
2026-05-07 12:01 39.88212 -104.69291 34828 ft 412 kts 261°
2026-05-07 12:01 39.87510 -104.72913 35029 ft 412 kts 261°
2026-05-07 12:01 39.86820 -104.76489 35204 ft 411 kts 261°
2026-05-07 12:02 39.86121 -104.80111 35374 ft 411 kts 261°
2026-05-07 12:02 39.85434 -104.83688 35542 ft 410 kts 261°
2026-05-07 12:02 39.84747 -104.87254 35698 ft 410 kts 261°
2026-05-07 12:02 39.84053 -104.90870 35849 ft 410 kts 261°
2026-05-07 12:03 39.83362 -104.94451 36007 ft 409 kts 260°
2026-05-07 12:03 39.81985 -105.01573 36071 ft 408 kts 260°
2026-05-07 12:04 39.80605 -105.08701 36112 ft 408 kts 261°
2026-05-07 12:04 39.79216 -105.15846 36118 ft 409 kts 261°
2026-05-07 12:05 39.77822 -105.23003 36169 ft 409 kts 260°
2026-05-07 12:05 39.76422 -105.30154 36226 ft 410 kts 261°
2026-05-07 12:06 39.75014 -105.37322 36251 ft 410 kts 261°
2026-05-07 12:06 39.73606 -105.44464 36286 ft 410 kts 261°
2026-05-07 12:07 39.72198 -105.51582 36300 ft 410 kts 261°
2026-05-07 12:07 39.70779 -105.58743 36319 ft 410 kts 261°
2026-05-07 12:08 39.69355 -105.65893 36346 ft 411 kts 261°
2026-05-07 12:08 39.67925 -105.73067 36364 ft 411 kts 260°
2026-05-07 12:09 39.66497 -105.80203 36371 ft 411 kts 260°
2026-05-07 12:09 39.65052 -105.87380 36362 ft 411 kts 260°
2026-05-07 12:09 39.64328 -105.90964 36518 ft 411 kts 260°
2026-05-07 12:10 39.63605 -105.94542 36431 ft 410 kts 260°
2026-05-07 12:10 39.62158 -106.01688 36381 ft 411 kts 260°
2026-05-07 12:11 39.60718 -106.08779 36382 ft 410 kts 260°
2026-05-07 12:11 39.59260 -106.15924 36368 ft 410 kts 260°
2026-05-07 12:12 39.57793 -106.23075 36366 ft 411 kts 260°
2026-05-07 12:12 39.56331 -106.30198 36375 ft 411 kts 260°
2026-05-07 12:13 39.54863 -106.37322 36357 ft 411 kts 261°
2026-05-07 12:13 39.53392 -106.44432 36359 ft 410 kts 260°
2026-05-07 12:14 39.51916 -106.51546 36348 ft 411 kts 260°
2026-05-07 12:14 39.50425 -106.58706 36328 ft 412 kts 261°
2026-05-07 12:15 39.48937 -106.65830 36311 ft 413 kts 259°
2026-05-07 12:15 39.47441 -106.72978 36327 ft 414 kts 260°
2026-05-07 12:16 39.45934 -106.80154 36344 ft 414 kts 259°
2026-05-07 12:16 39.44411 -106.87352 36347 ft 414 kts 259°
2026-05-07 12:17 39.42720 -106.94486 36339 ft 417 kts 257°
2026-05-07 12:17 39.40959 -107.01547 36332 ft 416 kts 257°
2026-05-07 12:18 39.39177 -107.08662 36339 ft 417 kts 257°
2026-05-07 12:18 39.37393 -107.15765 36345 ft 417 kts 257°
2026-05-07 12:19 39.35600 -107.22888 36346 ft 418 kts 257°
2026-05-07 12:19 39.33798 -107.30029 36354 ft 419 kts 257°
2026-05-07 12:20 39.31989 -107.37168 36352 ft 420 kts 257°
2026-05-07 12:20 39.30181 -107.44282 36343 ft 420 kts 257°
2026-05-07 12:21 39.28358 -107.51438 36340 ft 420 kts 257°
2026-05-07 12:21 39.26536 -107.58571 36350 ft 421 kts 257°
2026-05-07 12:22 39.24695 -107.65756 36340 ft 422 kts 257°
2026-05-07 12:22 39.22858 -107.72920 36335 ft 423 kts 257°
2026-05-07 12:23 39.21018 -107.80073 36331 ft 423 kts 257°
2026-05-07 12:23 39.19147 -107.87312 36321 ft 424 kts 257°
2026-05-07 12:24 39.17292 -107.94472 36326 ft 424 kts 257°
2026-05-07 12:24 39.15423 -108.01660 36321 ft 425 kts 257°
2026-05-07 12:25 39.13549 -108.08848 36312 ft 425 kts 257°
2026-05-07 12:25 39.11659 -108.16074 36299 ft 425 kts 257°
2026-05-07 12:26 39.09771 -108.23271 36292 ft 427 kts 257°
2026-05-07 12:26 39.07868 -108.30507 36296 ft 428 kts 257°
2026-05-07 12:27 39.05968 -108.37713 36286 ft 428 kts 257°
2026-05-07 12:27 39.04059 -108.44924 36279 ft 428 kts 257°
2026-05-07 12:28 39.02134 -108.52184 36254 ft 429 kts 257°
2026-05-07 12:28 39.00214 -108.59403 36278 ft 429 kts 257°
2026-05-07 12:29 38.98280 -108.66648 36274 ft 431 kts 256°
2026-05-07 12:29 38.96343 -108.73905 36266 ft 431 kts 256°
2026-05-07 12:30 38.94391 -108.81197 36260 ft 432 kts 256°
2026-05-07 12:30 38.92444 -108.88435 36260 ft 432 kts 256°
2026-05-07 12:31 38.90474 -108.95731 36248 ft 433 kts 256°
2026-05-07 12:31 38.88483 -109.03027 36245 ft 434 kts 256°
2026-05-07 12:32 38.86485 -109.10292 36245 ft 434 kts 256°
2026-05-07 12:32 38.84488 -109.17588 36253 ft 434 kts 256°
2026-05-07 12:33 38.81496 -109.28527 36247 ft 435 kts 256°
2026-05-07 12:33 38.79500 -109.35810 36246 ft 436 kts 256°
2026-05-07 12:34 38.77488 -109.43125 36248 ft 437 kts 256°
2026-05-07 12:34 38.75471 -109.50442 36250 ft 437 kts 256°
2026-05-07 12:35 38.73444 -109.57772 36235 ft 438 kts 256°
2026-05-07 12:35 38.71419 -109.65073 36224 ft 439 kts 255°
2026-05-07 12:36 38.69372 -109.72456 36209 ft 440 kts 255°
2026-05-07 12:36 38.67331 -109.79791 36199 ft 441 kts 255°
2026-05-07 12:37 38.65260 -109.87196 36215 ft 442 kts 255°
2026-05-07 12:37 38.63194 -109.94566 36235 ft 441 kts 255°
2026-05-07 12:38 38.61134 -110.01894 36239 ft 443 kts 255°
2026-05-07 12:38 38.59040 -110.09324 36241 ft 444 kts 255°
2026-05-07 12:39 38.56951 -110.16708 36240 ft 443 kts 255°
2026-05-07 12:39 38.54864 -110.24067 36242 ft 444 kts 255°
2026-05-07 12:40 38.52751 -110.31498 36242 ft 445 kts 255°
2026-05-07 12:40 38.50636 -110.38915 36244 ft 446 kts 255°
2026-05-07 12:41 38.48515 -110.46326 36246 ft 446 kts 255°
2026-05-07 12:41 38.46394 -110.53722 36238 ft 447 kts 255°
2026-05-07 12:42 38.44247 -110.61153 36204 ft 448 kts 254°
2026-05-07 12:42 38.41665 -110.68424 36156 ft 453 kts 247°
2026-05-07 12:43 38.38392 -110.75374 36152 ft 458 kts 240°
2026-05-07 12:43 38.34563 -110.81895 36204 ft 462 kts 236°
2026-05-07 12:44 38.30644 -110.88339 36240 ft 461 kts 237°
2026-05-07 12:44 38.26730 -110.94778 36250 ft 462 kts 236°
2026-05-07 12:45 38.22813 -111.01223 36252 ft 462 kts 236°
2026-05-07 12:45 38.18877 -111.07688 36261 ft 463 kts 236°
2026-05-07 12:46 38.14946 -111.14133 36258 ft 463 kts 236°
2026-05-07 12:46 38.11013 -111.20571 36256 ft 464 kts 236°
2026-05-07 12:47 38.07052 -111.27045 36266 ft 465 kts 236°
2026-05-07 12:47 38.03089 -111.33503 36292 ft 464 kts 236°
2026-05-07 12:48 37.99127 -111.39949 36314 ft 465 kts 236°
2026-05-07 12:48 37.95161 -111.46388 36321 ft 465 kts 236°
2026-05-07 12:49 37.91185 -111.52834 36158 ft 467 kts 236°
2026-05-07 12:49 37.89190 -111.56059 35852 ft 466 kts 236°
2026-05-07 12:49 37.87199 -111.59251 35553 ft 467 kts 236°
2026-05-07 12:50 37.85193 -111.62467 35249 ft 468 kts 236°
2026-05-07 12:50 37.83168 -111.65717 34943 ft 469 kts 235°
2026-05-07 12:50 37.81163 -111.68949 34648 ft 469 kts 236°
2026-05-07 12:50 37.79138 -111.72221 34356 ft 470 kts 235°
2026-05-07 12:51 37.77134 -111.75455 34067 ft 471 kts 235°
2026-05-07 12:51 37.75118 -111.78700 33798 ft 471 kts 235°
2026-05-07 12:51 37.73106 -111.81936 33539 ft 472 kts 235°
2026-05-07 12:51 37.71079 -111.85188 33273 ft 472 kts 235°
2026-05-07 12:52 37.69051 -111.88437 33008 ft 472 kts 235°
2026-05-07 12:52 37.67033 -111.91669 32748 ft 472 kts 235°
2026-05-07 12:52 37.64993 -111.94930 32482 ft 472 kts 235°
2026-05-07 12:52 37.62942 -111.98207 32343 ft 473 kts 235°
2026-05-07 12:53 37.58875 -112.04696 32332 ft 474 kts 234°
2026-05-07 12:53 37.54774 -112.11224 32328 ft 474 kts 236°
2026-05-07 12:54 37.51012 -112.17972 32332 ft 473 kts 240°
2026-05-07 12:54 37.47447 -112.24873 32340 ft 472 kts 240°
2026-05-07 12:55 37.43854 -112.31823 32332 ft 473 kts 240°
2026-05-07 12:55 37.40276 -112.38724 32320 ft 474 kts 240°
2026-05-07 12:56 37.36683 -112.45631 32311 ft 474 kts 240°
2026-05-07 12:56 37.33061 -112.52576 32306 ft 475 kts 240°
2026-05-07 12:57 37.29438 -112.59512 32296 ft 475 kts 240°
2026-05-07 12:57 37.25824 -112.66411 32289 ft 475 kts 239°
2026-05-07 12:58 37.22192 -112.73356 32284 ft 476 kts 239°
2026-05-07 12:58 37.18572 -112.80260 32281 ft 476 kts 239°
2026-05-07 12:59 37.14952 -112.87136 32283 ft 476 kts 239°
2026-05-07 12:59 37.11281 -112.94087 32285 ft 477 kts 239°
2026-05-07 13:00 37.07649 -113.00950 32255 ft 477 kts 239°
2026-05-07 13:00 37.03992 -113.07845 32219 ft 477 kts 239°
2026-05-07 13:01 37.00307 -113.14781 32208 ft 478 kts 239°
2026-05-07 13:01 36.96670 -113.21609 32078 ft 467 kts 239°
2026-05-07 13:02 36.94877 -113.24968 31609 ft 462 kts 239°
2026-05-07 13:02 36.93103 -113.28292 30847 ft 464 kts 239°
2026-05-07 13:02 36.91313 -113.31645 30018 ft 466 kts 239°
2026-05-07 13:02 36.89503 -113.35028 29213 ft 468 kts 239°
2026-05-07 13:03 36.87688 -113.38392 28496 ft 467 kts 238°
2026-05-07 13:03 36.85886 -113.41725 27959 ft 461 kts 238°
2026-05-07 13:03 36.84116 -113.45006 27422 ft 457 kts 238°
2026-05-07 13:03 36.82368 -113.48256 26849 ft 453 kts 239°
2026-05-07 13:04 36.80629 -113.51491 26270 ft 450 kts 239°
2026-05-07 13:04 36.78900 -113.54712 25708 ft 446 kts 239°
2026-05-07 13:04 36.77168 -113.57939 25129 ft 443 kts 239°
2026-05-07 13:04 36.75473 -113.61096 24576 ft 439 kts 239°
2026-05-07 13:05 36.73800 -113.64207 24278 ft 436 kts 239°
2026-05-07 13:05 36.72109 -113.67361 24232 ft 437 kts 238°
2026-05-07 13:05 36.70433 -113.70495 24224 ft 438 kts 238°
2026-05-07 13:05 36.68734 -113.73659 24222 ft 439 kts 238°
2026-05-07 13:06 36.67024 -113.76834 24221 ft 439 kts 238°
2026-05-07 13:06 36.65350 -113.79940 24161 ft 435 kts 238°
2026-05-07 13:06 36.63662 -113.83063 23716 ft 431 kts 238°
2026-05-07 13:06 36.62011 -113.86115 23083 ft 430 kts 238°
2026-05-07 13:07 36.60341 -113.89201 22492 ft 428 kts 238°
2026-05-07 13:07 36.58675 -113.92203 21953 ft 425 kts 236°
2026-05-07 13:07 36.56890 -113.95136 21376 ft 421 kts 234°
2026-05-07 13:07 36.55117 -113.97998 20646 ft 417 kts 234°
2026-05-07 13:08 36.53369 -114.00809 19781 ft 412 kts 234°
2026-05-07 13:08 36.51623 -114.03615 18790 ft 407 kts 234°
2026-05-07 13:08 36.49923 -114.06351 17815 ft 403 kts 234°
2026-05-07 13:08 36.48223 -114.09084 16836 ft 398 kts 234°
2026-05-07 13:09 36.46549 -114.11776 15898 ft 392 kts 234°
2026-05-07 13:09 36.44915 -114.14399 15052 ft 385 kts 234°
2026-05-07 13:09 36.43309 -114.16975 14564 ft 367 kts 234°
2026-05-07 13:09 36.41793 -114.19402 14191 ft 349 kts 234°
2026-05-07 13:10 36.40334 -114.21739 13715 ft 337 kts 234°
2026-05-07 13:10 36.38920 -114.24000 13083 ft 332 kts 233°
2026-05-07 13:10 36.37493 -114.26248 12642 ft 326 kts 233°
2026-05-07 13:10 36.36113 -114.28410 12370 ft 320 kts 233°
2026-05-07 13:11 36.34726 -114.30582 12029 ft 316 kts 233°
2026-05-07 13:11 36.33369 -114.32709 11671 ft 314 kts 233°
2026-05-07 13:11 36.32024 -114.34817 11307 ft 312 kts 233°
2026-05-07 13:11 36.30680 -114.36920 10935 ft 310 kts 233°
2026-05-07 13:12 36.29346 -114.39008 10569 ft 309 kts 233°
2026-05-07 13:12 36.28026 -114.41074 10210 ft 307 kts 233°
2026-05-07 13:12 36.26704 -114.43140 10033 ft 304 kts 233°
2026-05-07 13:12 36.25395 -114.45184 10027 ft 305 kts 233°
2026-05-07 13:13 36.24065 -114.47237 10020 ft 305 kts 233°
2026-05-07 13:13 36.22727 -114.49287 10015 ft 304 kts 232°
2026-05-07 13:13 36.21397 -114.51321 9895 ft 304 kts 233°
2026-05-07 13:13 36.20068 -114.53355 9746 ft 303 kts 233°
2026-05-07 13:14 36.18753 -114.55369 9579 ft 302 kts 233°
2026-05-07 13:14 36.17435 -114.57387 9392 ft 302 kts 233°
2026-05-07 13:14 36.16115 -114.59407 9132 ft 301 kts 232°
2026-05-07 13:14 36.14810 -114.61420 8927 ft 297 kts 233°
2026-05-07 13:15 36.13554 -114.63428 8928 ft 292 kts 234°
2026-05-07 13:15 36.12327 -114.65404 8654 ft 287 kts 234°
2026-05-07 13:15 36.11126 -114.67351 8396 ft 282 kts 234°
2026-05-07 13:15 36.09955 -114.69244 8174 ft 275 kts 234°
2026-05-07 13:16 36.08813 -114.71081 8071 ft 263 kts 233°
2026-05-07 13:16 36.07853 -114.72935 7981 ft 249 kts 251°
2026-05-07 13:16 36.07531 -114.74990 7761 ft 244 kts 270°
2026-05-07 13:16 36.07570 -114.77084 7450 ft 243 kts 275°
2026-05-07 13:17 36.07663 -114.79151 7137 ft 241 kts 274°
2026-05-07 13:17 36.07726 -114.81205 6825 ft 240 kts 273°
2026-05-07 13:17 36.07751 -114.83273 6513 ft 238 kts 272°
2026-05-07 13:17 36.07751 -114.85302 6199 ft 237 kts 271°
2026-05-07 13:18 36.07738 -114.87313 5904 ft 235 kts 271°
2026-05-07 13:18 36.07722 -114.89320 5598 ft 234 kts 271°
2026-05-07 13:18 36.07706 -114.91317 5297 ft 232 kts 271°
2026-05-07 13:18 36.07692 -114.93316 4994 ft 229 kts 271°
2026-05-07 13:19 36.07682 -114.95267 4702 ft 229 kts 271°
2026-05-07 13:19 36.07674 -114.97217 4398 ft 222 kts 270°
2026-05-07 13:19 36.07667 -114.99078 4109 ft 213 kts 270°
2026-05-07 13:19 36.07662 -115.00869 3877 ft 202 kts 270°
2026-05-07 13:20 36.07658 -115.02537 3691 ft 186 kts 270°
2026-05-07 13:20 36.07656 -115.04076 3417 ft 175 kts 270°
2026-05-07 13:20 36.07654 -115.05550 3127 ft 166 kts 270°
2026-05-07 13:20 36.07645 -115.06950 2933 ft 163 kts 270°
2026-05-07 13:21 36.07647 -115.08344 2745 ft 162 kts 270°
2026-05-07 13:21 36.07647 -115.09724 2552 ft 162 kts 269°
2026-05-07 13:21 36.07642 -115.11104 2323 ft 160 kts 269°
2026-05-07 13:21 36.07643 -115.12480 2113 ft 159 kts 269°
2026-05-07 13:22 36.07641 -115.13794 2083 ft 139 kts 270°
2026-05-07 13:22 36.07638 -115.14768 2114 ft 89 kts 269°
2026-05-07 13:22 36.07640 -115.15327 2135 ft 41 kts 270°
2026-05-07 13:22 36.07639 -115.15634 2146 ft 25 kts 269°
2026-05-07 13:23 36.07685 -115.15801 2152 ft 15 kts 319°
2026-05-07 13:23 36.07754 -115.15827 2151 ft 0 kts 359°
2026-05-07 13:24 36.07759 -115.15827 2151 ft 2 kts 359°
2026-05-07 13:24 36.07791 -115.15826 2151 ft 6 kts
2026-05-07 13:24 36.07802 -115.15770 2148 ft 10 kts 90°
2026-05-07 13:24 36.07803 -115.15654 2144 ft 16 kts 90°
2026-05-07 13:25 36.07803 -115.15494 2138 ft 20 kts 90°
2026-05-07 13:25 36.07805 -115.15309 2131 ft 20 kts 89°
2026-05-07 13:25 36.07880 -115.15202 2125 ft 20 kts
2026-05-07 13:25 36.08026 -115.15203 2122 ft 21 kts 359°
2026-05-07 13:26 36.08152 -115.15202 2120 ft 15 kts
2026-05-07 13:26 36.08223 -115.15196 2117 ft 8 kts 340°
2026-05-07 13:26 36.08257 -115.15215 2117 ft 2 kts 334°
2026-05-07 13:26 36.08262 -115.15218 2117 ft 0 kts 333°